Satellite-Ground Cal/Val Region Overpasses Predictions

Prediction of Satellite NPP Overpassing Cal/Val Region: PacNW

Region Location: (Latitude: 10.00, Longitude: 139.50) to (Latitude: 22.70, Longitude: 165.60).

Table of predicted overpasses for the next 14.0 days since TLE Epoch: 3/22/2014
Interval Starting Time Starting Location Ending Time Ending Location
1 03/22/2014 15:47:02 ( 22.70, 149.18) 03/22/2014 15:50:38 ( 10.02, 146.15)
2 03/23/2014 02:56:09 ( 10.04, 156.66) 03/23/2014 02:59:44 ( 22.66, 153.65)
3 03/23/2014 15:28:04 ( 22.65, 153.93) 03/23/2014 15:31:39 ( 10.04, 150.91)
4 03/24/2014 02:37:09 ( 10.02, 161.42) 03/24/2014 02:40:45 ( 22.70, 158.39)
5 03/24/2014 15:09:04 ( 22.67, 158.68) 03/24/2014 15:12:39 ( 10.05, 155.67)
6 03/25/2014 02:18:53 ( 12.53, 165.59) 03/25/2014 02:21:46 ( 22.68, 163.15)
7 03/25/2014 03:59:41 ( 10.06, 140.79) 03/25/2014 04:01:15 ( 15.58, 139.50)
8 03/25/2014 14:50:05 ( 22.68, 163.44) 03/25/2014 14:53:41 ( 10.01, 160.41)
9 03/26/2014 03:40:41 ( 10.05, 145.55) 03/26/2014 03:44:16 ( 22.66, 142.53)
10 03/26/2014 14:34:09 ( 11.90, 165.60) 03/26/2014 14:34:41 ( 10.02, 165.16)
11 03/26/2014 16:12:36 ( 22.64, 142.81) 03/26/2014 16:16:11 ( 10.02, 139.79)
12 03/27/2014 03:21:42 ( 10.03, 150.30) 03/27/2014 03:25:17 ( 22.65, 147.29)
13 03/27/2014 15:53:37 ( 22.65, 147.56) 03/27/2014 15:57:12 ( 10.04, 144.55)
14 03/28/2014 03:02:43 ( 10.02, 155.06) 03/28/2014 03:06:18 ( 22.64, 152.04)
15 03/28/2014 15:34:37 ( 22.66, 152.32) 03/28/2014 15:38:12 ( 10.05, 149.30)
16 03/29/2014 02:43:43 ( 10.01, 159.81) 03/29/2014 02:47:19 ( 22.69, 156.78)
17 03/29/2014 15:15:38 ( 22.67, 157.07) 03/29/2014 15:19:13 ( 10.05, 154.06)
18 03/30/2014 02:24:44 ( 10.01, 164.57) 03/30/2014 02:28:20 ( 22.68, 161.54)
19 03/30/2014 14:56:38 ( 22.68, 161.83) 03/30/2014 15:00:14 ( 10.00, 158.80)
20 03/31/2014 03:47:15 ( 10.06, 143.93) 03/31/2014 03:50:50 ( 22.67, 140.92)
21 03/31/2014 14:38:47 ( 18.70, 165.60) 03/31/2014 14:41:15 ( 10.01, 163.55)
22 03/31/2014 16:19:09 ( 22.69, 141.21) 03/31/2014 16:21:08 ( 15.71, 139.51)
23 04/01/2014 03:28:16 ( 10.05, 148.69) 04/01/2014 03:31:51 ( 22.67, 145.67)
24 04/01/2014 16:00:09 ( 22.69, 145.96) 04/01/2014 16:03:45 ( 10.02, 142.93)
25 04/02/2014 03:09:16 ( 10.05, 153.44) 04/02/2014 03:12:51 ( 22.67, 150.43)
26 04/02/2014 15:41:10 ( 22.69, 150.72) 04/02/2014 15:44:46 ( 10.02, 147.69)
27 04/03/2014 02:50:17 ( 10.05, 158.19) 04/03/2014 02:53:52 ( 22.67, 155.18)
28 04/03/2014 15:22:10 ( 22.70, 155.47) 04/03/2014 15:25:46 ( 10.02, 152.44)
29 04/04/2014 02:31:17 ( 10.05, 162.95) 04/04/2014 02:34:52 ( 22.67, 159.93)
30 04/04/2014 15:03:11 ( 22.69, 160.22) 04/04/2014 15:06:47 ( 10.02, 157.19)
31 04/05/2014 02:14:50 ( 18.97, 165.60) 04/05/2014 02:15:53 ( 22.67, 164.69)


NCC Satellite Cal/Val Overpasses Prediction Service
